Location: Borovka
(49.7741°N, 14.5280°E)
Time: 03:11:52
(UTC+00:00)

ESTCUBE 1 - Pass Details

Date: 14 March 2026
Orbit: 620 x 631 km, 97.7° (Epoch: 13 April)

Event Time Altitude Azimuth Distance (km) Brightness Sun altitude
Exits shadow 20:02:15 53° 289° (WNW) 778 ? -28.0°
Drops below altitude 10° 20:06:04 10° 339° (NNW) 2,017 ? -28.5°
Sets 20:08:19 0° 344° (NNW) 2,931 ? -28.8°
